Probability
0 0 0 0 0 0 0 0 0 0 0 0 0 0 0 0 0 0 0 0 0 0 0 0 0 0 0 0 0 0 0 1 2 2 1 0 0 0 0 0 0 0 0 0
0 0 0 0 0 0 0 0 0 0 0 0 0 0 0 0 0 0 0 0 0 0 0 0 0 0 0 0 0 0 0 1 1 1 1 0 0 0 0 0 0 0 0 0
0 0 0 0 0 0 0 0 0 0 0 0 0 0 0 0 0 0 0 0 0 0 0 0 0 0 0 0 0 0 0 0 0 0 0 0 0 0 0 0 0 0 0 0
0 0 0 0 0 0 0 0 0 0 0 0 0 0 0 0 0 0 0 0 0 0 0 0 0 0 0 0 0 0 0 0 0 0 0 0 0 0 0 0 0 0 0 0
0 0 0 0 0 0 0 0 0 0 0 0 0 0 0 0 0 0 0 0 0 0 0 0 0 0 0 0 0 0 0 0 0 0 0 0 0 0 0 0 0 0 0 0
0 0 0 0 0 0 0 0 0 0 0 0 0 0 0 0 0 0 0 0 0 0 0 0 0 0 0 0 0 0 0 0 0 0 0 0 0 0 0 0 0 0 0 0
0 0 0 0 0 0 0 0 0 0 0 0 0 0 0 0 0 0 0 0 0 0 0 0 0 0 0 0 0 0 0 0 0 0 0 0 0 0 0 0 0 0 0 0
0 0 0 0 0 0 0 0 0 0 0 0 0 0 0 0 0 0 0 0 0 0 0 0 0 0 0 0 0 0 0 0 0 0 0 0 0 0 0 0 0 0 0 0
0 0 0 0 0 0 0 0 0 0 0 0 0 0 0 0 0 0 0 0 0 0 0 0 0 0 0 0 0 0 0 0 0 0 0 0 0 0 0 0 0 0 0 0
0 0 0 0 0 0 0 0 0 0 0 0 0 0 0 0 0 0 0 0 0 0 0 0 0 0 0 0 0 0 0 0 0 0 0 0 0 0 0 0 0 0 0 0
0 0 0 0 0 0 0 0 0 0 0 0 0 0 0 0 0 0 0 0 0 0 0 0 0 0 0 0 0 0 0 0 0 0 0 0 0 0 0 0 0 0 0 0
0 0 0 0 0 0 0 0 0 0 0 0 0 0 0 0 0 0 0 0 0 0 0 0 0 0 0 0 0 0 0 0 0 0 0 0 0 0 0 0 0 0 0 0
0 0 0 0 0 0 0 0 0 0 0 0 0 0 0 0 0 0 0 0 0 0 0 0 0 0 0 0 0 0 0 0 0 0 0 0 0 0 0 0 0 0 0 0
0 0 0 0 0 0 0 0 0 0 0 0 0 0 0 0 0 0 0 0 0 0 0 0 0 0 0 0 0 0 0 0 0 0 0 0 0 0 0 0 0 0 0 0
0 0 0 0 0 0 0 0 0 0 0 0 0 0 0 0 0 0 0 0 0 0 0 0 0 0 0 0 0 0 0 0 0 0 0 0 0 0 0 0 0 0 0 0
0 0 0 0 0 0 0 0 0 0 0 0 0 0 0 0 0 0 0 0 0 0 0 0 0 0 0 0 0 0 0 0 0 0 0 0 0 0 0 0 0 0 0 0
0 0 0 0 0 0 0 0 0 0 0 0 0 0 0 0 0 0 0 0 0 0 0 0 0 0 0 0 0 0 0 0 0 0 0 0 0 0 0 0 0 0 0 0
0 0 0 0 0 0 0 0 0 0 0 0 0 0 0 0 0 0 0 0 0 0 0 0 0 0 0 0 0 0 0 0 0 0 0 0 0 0 0 0 0 0 0 0
0 0 0 0 0 0 0 0 0 0 0 0 0 0 0 0 0 0 0 0 0 0 0 0 0 0 0 0 0 0 0 0 0 0 0 0 0 0 0 0 0 0 0 0
0 0 0 0 0 0 0 0 0 0 0 0 0 0 0 0 0 0 0 0 0 0 0 0 0 0 0 0 0 0 0 0 0 0 0 0 0 0 0 0 0 0 0 0
0 0 0 0 0 0 0 0 0 0 0 0 0 0 0 0 0 0 0 0 0 0 0 0 0 0 0 0 0 0 0 0 0 0 0 0 0 0 0 0 0 0 0 0
0 0 0 0 0 0 0 0 0 0 0 0 0 0 0 0 0 0 0 0 0 0 0 0 0 0 0 0 0 0 0 0 0 0 0 0 0 0 0 0 0 0 0 0
0 0 0 0 0 0 0 0 0 0 0 0 0 0 0 0 0 0 0 0 0 0 0 0 0 0 0 0 0 0 0 0 0 0 0 0 0 0 0 0 0 0 0 0
0 0 0 0 0 0 0 0 0 0 0 0 0 0 0 0 0 0 0 0 0 0 0 0 0 0 0 0 0 0 0 0 0 0 0 0 0 0 0 0 0 0 0 0
0 0 0 0 0 0 0 0 0 0 0 0 0 0 0 0 0 0 0 0 0 0 0 0 0 0 0 0 0 0 0 0 0 0 0 0 0 0 0 0 0 0 0 0
0 0 0 0 0 0 0 0 0 0 0 0 0 0 0 0 0 0 0 0 0 0 0 0 0 0 0 0 0 0 0 0 0 0 0 0 0 0 0 0 0 0 0 0
Wind_Speed
3 3 1 3 3 2 1 2 6 7 5 4 7 11 12 10 7 8 8 8 9 10 9 7 6 5 4 3 4 4 4 5 4 3 3 4 4 4 4 5 6 8 8 9
3 0 3 2 2 1 2 4 5 6 4 4 6 10 9 6 5 6 7 8 9 10 9 7 6 4 3 3 3 4 4 4 4 4 3 3 3 3 3 3 5 8 8 9
2 2 1 2 1 2 4 4 4 6 7 4 5 7 5 5 4 6 7 7 8 9 10 9 7 6 4 3 3 3 3 4 4 4 2 1 1 1 2 3 4 6 7 8
1 2 1 1 2 3 4 4 5 5 5 4 3 5 6 7 8 9 10 9 10 10 9 8 8 7 5 4 3 2 3 2 3 3 3 4 3 3 3 2 3 4 6 7
1 0 1 2 3 4 5 3 3 4 3 3 2 2 7 6 8 11 11 11 10 10 9 9 8 7 6 5 4 3 1 1 1 2 3 4 3 2 1 1 2 3 3 5
2 1 2 2 2 3 3 2 1 0 1 2 2 1 5 5 9 12 12 12 12 11 10 10 9 9 8 6 5 5 3 3 2 1 1 2 3 2 2 2 2 2 2 3
3 1 1 1 1 1 1 2 3 4 3 3 2 1 4 5 7 8 10 11 11 11 11 11 12 12 11 10 8 6 5 5 4 2 1 0 1 1 2 2 2 2 2 2
2 3 2 2 2 1 0 2 2 1 3 4 2 2 4 3 4 6 7 9 10 12 11 12 12 11 11 11 10 8 8 7 6 4 3 2 1 1 0 1 1 1 2 2
0 3 2 2 2 2 1 1 1 2 1 2 3 4 3 3 5 7 8 9 10 11 11 11 11 11 11 11 11 9 9 8 8 7 6 5 4 3 2 2 1 1 1 2
1 2 3 2 1 0 1 2 2 1 0 2 4 3 3 6 7 7 8 9 9 9 10 10 10 10 10 10 9 9 9 8 8 8 7 6 6 5 4 3 3 2 2 2
1 0 3 2 0 1 0 1 1 1 1 1 2 3 1 3 3 4 5 6 7 8 8 9 9 9 9 9 9 9 10 10 9 8 8 7 7 6 5 4 4 4 3 3
1 1 2 3 3 2 2 2 2 1 1 1 1 4 2 1 1 2 3 4 5 6 7 7 8 9 9 9 9 9 9 9 9 8 8 7 7 7 7 6 6 5 5 4
2 2 3 5 3 3 1 1 1 2 2 1 1 4 1 1 1 2 2 3 4 5 6 7 7 8 9 9 8 8 9 8 8 8 8 8 8 9 8 7 7 7 6 6
3 2 3 3 3 2 3 2 1 3 1 2 3 4 3 2 2 2 2 2 3 4 5 6 7 7 7 8 8 8 8 8 8 8 8 8 8 8 7 7 7 7 7 6
3 1 2 4 3 2 2 3 1 2 3 4 4 3 4 3 2 2 1 2 3 4 5 5 6 6 7 7 7 7 7 8 8 7 8 8 7 7 7 7 7 7 7 7
2 0 2 3 1 1 3 4 3 3 2 3 3 5 3 1 1 0 1 1 2 3 4 4 5 5 6 7 7 7 7 7 7 7 7 7 7 7 8 8 7 7 7 6
2 1 2 4 5 4 5 5 5 3 3 4 5 5 1 1 2 3 2 2 2 2 3 3 4 4 5 5 5 6 6 6 7 7 7 8 8 8 8 8 8 8 7 7
1 1 1 2 4 4 6 1 3 3 4 5 5 4 3 4 2 2 2 2 2 2 2 2 3 3 4 4 4 5 5 6 6 6 7 7 7 7 7 7 7 7 6 6
3 3 1 1 2 8 6 2 4 3 5 4 6 4 2 1 1 3 2 2 2 2 2 2 2 2 3 4 4 4 5 5 6 7 7 7 7 7 7 7 7 6 6 6
2 3 2 1 2 6 4 1 2 2 5 4 5 5 3 4 0 4 1 2 1 1 1 1 1 2 3 4 3 4 5 5 6 7 7 7 6 6 7 7 6 5 5 6
0 1 2 3 5 9 5 2 3 2 6 2 4 5 5 6 5 2 1 1 1 1 0 1 1 2 3 3 3 4 4 5 6 6 6 6 6 6 6 6 5 6 6 6
5 4 4 4 5 9 3 5 7 8 2 2 3 4 5 5 2 2 2 1 1 0 1 1 1 2 3 3 3 4 5 6 6 6 6 7 7 6 6 6 6 6 6 6
6 8 6 9 9 5 4 7 5 3 3 3 3 4 4 4 3 3 2 2 1 1 1 1 1 3 3 3 3 4 5 6 6 6 7 7 7 6 6 6 7 6 5 5
5 3 4 6 9 6 6 6 5 4 4 4 3 3 4 4 4 3 2 2 1 1 1 1 2 3 4 4 4 4 5 6 6 6 7 6 6 7 6 6 5 6 6 6
7 4 4 7 8 6 6 6 5 4 3 3 2 3 4 4 4 4 3 2 2 1 1 1 1 3 4 5 5 5 5 5 6 7 6 7 6 6 6 6 6 7 6 7
8 10 9 9 7 6 6 3 3 4 5 5 3 2 2 4 4 3 3 2 2 1 1 1 2 3 4 4 5 5 5 5 6 7 7 6 6 6 6 7 8 11 12 15
Wind_Direction
64 76 150 205 184 183 208 279 289 280 283 296 285 290 300 310 317 311 310 312 312 304 295 297 292 284 273 260 246 234 230 226 207 200 196 198 208 211 210 206 205 202 198 195
66 327 237 188 177 203 255 285 287 293 299 290 295 295 298 310 313 312 318 321 321 320 322 322 320 311 283 267 253 242 235 227 213 209 198 193 188 202 210 210 207 203 200 198
140 240 190 157 181 227 253 241 262 287 312 304 313 312 327 332 342 345 345 332 331 331 329 329 332 328 318 299 271 257 243 229 217 205 186 179 164 165 198 205 212 208 202 198
236 252 175 191 221 204 269 239 244 280 314 319 360 315 314 336 340 353 351 346 342 340 339 340 341 339 335 316 305 276 250 235 220 194 188 185 189 202 213 203 220 215 206 201
255 234 195 232 233 194 240 279 258 267 267 299 318 272 299 339 341 346 349 350 349 348 352 355 353 348 349 347 341 338 325 308 250 200 199 200 208 218 208 188 204 219 220 211
253 250 213 226 256 210 251 314 301 2 59 305 282 232 302 336 335 336 346 351 353 356 360 3 5 6 6 4 5 9 12 8 14 30 202 196 207 209 197 206 214 221 221 219
340 304 246 197 332 342 65 54 23 7 4 273 287 229 274 317 336 338 344 352 357 0 4 7 8 11 13 11 10 10 19 19 17 21 4 306 212 195 210 226 228 229 228 222
13 317 257 196 204 230 218 135 134 234 274 294 322 275 279 325 349 359 2 4 7 9 9 9 8 10 12 11 12 18 25 21 18 21 21 22 28 60 344 296 266 251 254 246
90 291 290 223 211 176 154 181 181 159 253 286 297 302 308 360 9 11 9 12 11 8 8 10 9 12 11 10 12 17 25 26 21 17 19 22 20 23 12 355 349 321 291 281
199 288 297 298 96 301 192 164 106 132 306 305 314 312 317 336 350 359 3 6 5 6 6 5 7 9 11 11 12 19 24 23 22 21 23 23 16 9 3 6 356 335 322 307
187 241 312 348 206 241 182 127 146 178 183 187 316 297 310 327 346 350 352 360 360 3 2 1 2 3 8 13 16 19 19 21 21 21 23 22 14 9 11 11 0 350 339 327
202 133 294 274 255 215 197 207 172 175 264 188 220 277 346 12 350 357 351 356 360 4 1 2 2 4 9 14 16 17 16 18 17 17 20 19 14 13 14 7 0 357 351 345
150 97 4 352 349 360 338 285 173 152 126 164 201 273 337 26 12 7 357 352 357 1 3 4 4 6 9 11 13 15 14 11 12 16 19 17 15 14 11 3 358 358 357 356
110 112 160 205 246 277 298 306 194 151 166 224 232 261 301 302 308 320 332 344 352 358 3 5 2 2 5 8 10 11 11 8 10 15 18 17 11 7 3 360 0 0 359 358
91 135 239 247 253 245 254 267 251 196 206 209 240 248 264 258 249 271 312 341 350 354 360 2 1 359 2 4 4 5 5 5 6 12 14 9 2 360 359 359 358 358 359 355
45 34 332 307 296 286 280 263 241 231 218 224 255 272 255 242 132 294 281 320 330 337 349 355 358 1 1 359 357 358 360 359 2 10 7 360 359 0 359 355 356 357 355 351
9 34 3 299 315 339 286 246 203 213 213 197 223 244 216 209 244 250 251 255 274 304 328 343 346 347 349 349 350 352 349 351 2 5 2 359 358 359 354 350 353 350 344 344
159 95 113 312 359 271 252 245 190 209 247 219 230 241 222 218 233 249 223 221 258 289 312 325 331 334 336 340 345 344 348 353 356 357 355 352 352 351 346 347 345 338 333 332
171 150 121 40 306 282 289 228 179 195 274 224 215 234 229 158 15 308 248 206 220 243 260 276 297 313 331 338 340 344 349 349 351 349 345 342 341 340 341 340 334 327 326 325
91 112 132 155 261 260 263 195 160 104 284 245 193 204 182 137 239 270 241 190 213 260 283 296 324 344 340 331 338 350 345 346 341 333 329 329 331 331 329 324 319 318 319 317
354 99 176 197 239 266 254 192 122 174 252 229 187 193 174 190 211 223 157 165 186 210 302 340 347 340 325 329 345 345 339 331 321 321 323 326 326 321 317 316 317 318 317 317
203 197 205 181 218 258 209 147 188 219 233 195 195 195 191 208 213 185 178 186 186 212 336 352 348 331 331 341 346 334 325 316 320 323 323 321 319 317 322 318 316 316 316 315
215 201 197 201 223 241 204 210 229 198 209 216 203 207 189 200 214 207 202 208 216 233 291 324 321 318 324 331 332 317 313 320 324 324 320 315 315 314 314 313 313 315 314 313
263 201 212 259 262 252 246 246 247 219 217 224 211 200 184 199 209 209 210 216 230 259 282 315 332 326 323 329 327 308 312 322 324 320 316 314 315 314 313 310 307 308 310 309
235 197 221 257 272 289 269 235 231 225 213 209 203 197 194 192 208 205 208 219 231 266 293 314 309 306 310 321 322 321 323 328 325 318 314 316 314 311 312 310 304 303 288 290
204 193 196 231 230 218 253 252 212 205 215 208 193 198 200 192 203 197 202 209 211 236 274 304 306 306 309 317 317 321 326 327 323 321 320 317 313 313 313 312 311 308 307 308